カタログに戻る

TABLETSAT AURORA

運用中科学PO
NORAD 40017·PAYLOAD·🇷🇺 Russia

打ち上げ Jun 19, 2014 から Dombarovsky

Loading…

次のパス (今後24時間)

TLE

最新Source: Space-Track

元期: Sep 14, 2026, 12:52 UTC

1 40017U 14033H   26257.53680237  .00005712  00000-0  27942-3 0  9991
2 40017  98.0187 337.0117 0009767 268.6431  91.3682 15.18611692668760

AllMySatでTABLETSAT AURORAをリアルタイム追跡

Download on the App Store